| time (UTC) | temp C | wind direction | speed KPH | gust KPH | rain 1hr cm | rain 24hr cm | rain mn cm | humidity % | barometer mb |
| 20260502163744 | 16 | 325 | 30.6 | 46.7 | 0.00 | 0.00 | 0.00 | 44 | 1010.5 |
| 20260502162757 | 16 | 323 | 27.4 | 45.1 | 0.00 | 0.00 | 0.00 | 45 | 1010.5 |
| 20260502161742 | 16 | 10 | 25.7 | 46.7 | 0.00 | 0.00 | 0.00 | 45 | 1010.5 |
| 20260502151447 | 13 | 321 | 30.6 | 46.7 | 0.00 | 0.00 | 0.00 | 51 | 1010.4 |
| 20260502150420 | 13 | 319 | 32.2 | 48.3 | 0.00 | 0.00 | 0.00 | 51 | 1010.5 |
| 20260502130108 | 10 | 0 | 16.1 | 24.1 | 0.00 | 0.00 | 0.00 | 62 | 1009.5 |
| 20260502122859 | 10 | 0 | 16.1 | 24.1 | 0.00 | 0.00 | 0.00 | 59 | 1009.3 |
| 20260502120654 | 10 | 297 | 14.5 | 22.5 | 0.00 | 0.00 | 0.00 | 58 | 1009.2 |
| 20260502115626 | 10 | 0 | 14.5 | 24.1 | 0.00 | 0.00 | 0.00 | 59 | 1009.2 |
| 20260502113457 | 10 | 0 | 14.5 | 22.5 | 0.00 | 0.00 | 0.00 | 58 | 1009.2 |
| 20260502111411 | 8 | 0 | 9.7 | 12.9 | 0.00 | 0.00 | 0.00 | 56 | 1008.8 |
| 20260502110352 | 8 | 0 | 9.7 | 16.1 | 0.00 | 0.00 | 0.00 | 55 | 1008.7 |
| 20260502105345 | 8 | 0 | 9.7 | 16.1 | 0.00 | 0.00 | 0.00 | 55 | 1008.9 |
| 20260502104330 | 8 | 0 | 6.4 | 12.9 | 0.00 | 0.00 | 0.00 | 55 | 1008.8 |
| 20260502103345 | 8 | 0 | 8.0 | 16.1 | 0.00 | 0.00 | 0.00 | 52 | 1008.7 |
| 20260502102401 | 9 | 0 | 9.7 | 16.1 | 0.00 | 0.00 | 0.00 | 53 | 1008.5 |
| 20260502100218 | 9 | 229 | 11.3 | 16.1 | 0.00 | 0.00 | 0.00 | 51 | 1008.8 |
| 20260502090126 | 9 | 0 | 3.2 | 9.7 | 0.00 | 0.00 | 0.00 | 48 | 1009.2 |
| 20260502070929 | 9 | 0 | 11.3 | 17.7 | 0.00 | 0.00 | 0.00 | 50 | 1010.0 |
| 20260502065922 | 8 | 0 | 9.7 | 14.5 | 0.00 | 0.00 | 0.00 | 53 | 1010.3 |
| 20260502064900 | 8 | 0 | 3.2 | 9.7 | 0.00 | 0.00 | 0.00 | 55 | 1010.4 |
| 20260502063902 | 8 | 0 | 4.8 | 11.3 | 0.00 | 0.00 | 0.00 | 54 | 1010.4 |
| 20260502062853 | 8 | 0 | 6.4 | 12.9 | 0.00 | 0.00 | 0.00 | 52 | 1010.5 |
| 20260502061854 | 8 | 0 | 9.7 | 12.9 | 0.00 | 0.00 | 0.00 | 51 | 1010.6 |
| 20260502060858 | 8 | 0 | 8.0 | 12.9 | 0.00 | 0.00 | 0.00 | 51 | 1010.7 |
| 20260502055837 | 8 | 0 | 12.9 | 17.7 | 0.00 | 0.00 | 0.00 | 51 | 1010.7 |
| 20260502054817 | 8 | 0 | 12.9 | 17.7 | 0.00 | 0.00 | 0.00 | 51 | 1010.4 |
| 20260502053816 | 8 | 195 | 12.9 | 17.7 | 0.00 | 0.00 | 0.00 | 52 | 1010.7 |
| 20260502052806 | 8 | 188 | 12.9 | 17.7 | 0.00 | 0.00 | 0.00 | 53 | 1010.7 |
| 20260502051829 | 7 | 0 | 11.3 | 17.7 | 0.00 | 0.00 | 0.00 | 53 | 1010.9 |
| 20260502050806 | 8 | 170 | 6.4 | 14.5 | 0.00 | 0.00 | 0.00 | 52 | 1011.0 |
| 20260502044714 | 8 | 195 | 8.0 | 17.7 | 0.00 | 0.00 | 0.00 | 51 | 1011.2 |
| 20260502043700 | 8 | 195 | 8.0 | 16.1 | 0.00 | 0.00 | 0.00 | 51 | 1011.5 |
| 20260502042656 | 8 | 0 | 11.3 | 16.1 | 0.00 | 0.00 | 0.00 | 50 | 1011.6 |
| 20260502041647 | 8 | 0 | 9.7 | 14.5 | 0.00 | 0.00 | 0.00 | 48 | 1011.7 |
| 20260502040619 | 9 | 0 | 4.8 | 11.3 | 0.00 | 0.00 | 0.00 | 48 | 1011.8 |
| 20260502035545 | 9 | 0 | 6.4 | 12.9 | 0.00 | 0.00 | 0.00 | 47 | 1011.9 |
| 20260502034512 | 10 | 0 | 4.8 | 17.7 | 0.00 | 0.00 | 0.00 | 46 | 1012.0 |
| 20260502033458 | 10 | 180 | 6.4 | 17.7 | 0.00 | 0.00 | 0.00 | 45 | 1012.2 |
| 20260502032427 | 10 | 173 | 4.8 | 9.7 | 0.00 | 0.00 | 0.00 | 45 | 1012.3 |
| 20260502031407 | 10 | 188 | 4.8 | 9.7 | 0.00 | 0.00 | 0.00 | 44 | 1012.3 |
| 20260502030336 | 10 | 169 | 4.8 | 9.7 | 0.00 | 0.00 | 0.00 | 43 | 1012.4 |
| 20260502025319 | 11 | 180 | 4.8 | 9.7 | 0.00 | 0.00 | 0.00 | 43 | 1012.5 |
| 20260502024316 | 11 | 189 | 4.8 | 9.7 | 0.00 | 0.00 | 0.00 | 42 | 1012.4 |
| 20260502023308 | 11 | 180 | 4.8 | 9.7 | 0.00 | 0.00 | 0.00 | 40 | 1012.6 |
| 20260502022306 | 12 | 182 | 4.8 | 9.7 | 0.00 | 0.00 | 0.00 | 38 | 1012.5 |
| 20260502021329 | 12 | 198 | 6.4 | 11.3 | 0.00 | 0.00 | 0.00 | 37 | 1012.5 |
| 20260502020349 | 13 | 200 | 6.4 | 11.3 | 0.00 | 0.00 | 0.00 | 36 | 1012.6 |
| 20260502015359 | 15 | 192 | 6.4 | 9.7 | 0.00 | 0.00 | 0.00 | 34 | 1012.6 |
| 20260502014408 | 16 | 0 | 8.0 | 9.7 | 0.00 | 0.00 | 0.00 | 29 | 1012.6 |
| 20260502013422 | 17 | 0 | 6.4 | 11.3 | 0.00 | 0.00 | 0.00 | 26 | 1012.7 |
| 20260502012354 | 18 | 219 | 11.3 | 19.3 | 0.00 | 0.00 | 0.00 | 23 | 1012.7 |
| 20260502011348 | 18 | 0 | 12.9 | 19.3 | 0.00 | 0.00 | 0.00 | 23 | 1012.7 |
| 20260502004152 | 20 | 252 | 12.9 | 22.5 | 0.00 | 0.00 | 0.00 | 21 | 1013.0 |
| 20260502003203 | 20 | 229 | 12.9 | 22.5 | 0.00 | 0.00 | 0.00 | 20 | 1013.1 |
| 20260502002225 | 20 | 246 | 11.3 | 22.5 | 0.00 | 0.00 | 0.00 | 20 | 1013.2 |
| 20260502001228 | 20 | 240 | 14.5 | 22.5 | 0.00 | 0.00 | 0.00 | 19 | 1013.3 |
| 20260502000200 | 20 | 227 | 11.3 | 19.3 | 0.00 | 0.00 | 0.00 | 18 | 1013.5 |
| 20260501235142 | 20 | 241 | 12.9 | 22.5 | 0.00 | 0.00 | 0.00 | 18 | 1013.5 |
| 20260501231939 | 21 | 265 | 9.7 | 24.1 | 0.00 | 0.00 | 0.00 | 18 | 1013.8 |
| 20260501225818 | 20 | 208 | 12.9 | 29.0 | 0.00 | 0.00 | 0.00 | 18 | 1014.0 |
| 20260501224802 | 20 | 258 | 14.5 | 29.0 | 0.00 | 0.00 | 0.00 | 19 | 1014.1 |
| 20260501223823 | 20 | 229 | 8.0 | 19.3 | 0.00 | 0.00 | 0.00 | 19 | 1014.2 |
| 20260501222749 | 20 | 263 | 14.5 | 25.7 | 0.00 | 0.00 | 0.00 | 19 | 1014.4 |
| 20260501221726 | 20 | 284 | 12.9 | 27.4 | 0.00 | 0.00 | 0.00 | 19 | 1014.5 |
| 20260501215600 | 20 | 229 | 12.9 | 27.4 | 0.00 | 0.00 | 0.00 | 20 | 1014.8 |
| 20260501214610 | 20 | 234 | 12.9 | 25.7 | 0.00 | 0.00 | 0.00 | 21 | 1014.9 |
| 20260501212357 | 20 | 268 | 14.5 | 27.4 | 0.00 | 0.00 | 0.00 | 21 | 1015.2 |
| 20260501211323 | 20 | 236 | 11.3 | 27.4 | 0.00 | 0.00 | 0.00 | 20 | 1015.3 |
| 20260501210252 | 20 | 206 | 14.5 | 35.4 | 0.00 | 0.00 | 0.00 | 22 | 1015.4 |
| 20260501204136 | 20 | 246 | 12.9 | 25.7 | 0.00 | 0.00 | 0.00 | 21 | 1015.6 |
| 20260501202002 | 21 | 217 | 1.6 | 20.9 | 0.00 | 0.00 | 0.00 | 21 | 1015.8 |
| 20260501200948 | 19 | 240 | 14.5 | 24.1 | 0.00 | 0.00 | 0.00 | 23 | 1015.9 |
| 20260501195933 | 20 | 263 | 9.7 | 24.1 | 0.00 | 0.00 | 0.00 | 23 | 1015.9 |
| 20260501194913 | 19 | 194 | 6.4 | 24.1 | 0.00 | 0.00 | 0.00 | 23 | 1016.1 |
| 20260501193854 | 18 | 234 | 11.3 | 24.1 | 0.00 | 0.00 | 0.00 | 24 | 1016.1 |
| 20260501190554 | 18 | 174 | 12.9 | 22.5 | 0.00 | 0.00 | 0.00 | 25 | 1016.3 |
| 20260501185542 | 18 | 258 | 12.9 | 22.5 | 0.00 | 0.00 | 0.00 | 24 | 1016.5 |
| 20260501184507 | 18 | 215 | 4.8 | 25.7 | 0.00 | 0.00 | 0.00 | 25 | 1016.5 |
| 20260501181159 | 17 | 238 | 14.5 | 25.7 | 0.00 | 0.00 | 0.00 | 25 | 1016.9 |
| 20260501180153 | 17 | 225 | 8.0 | 22.5 | 0.00 | 0.00 | 0.00 | 25 | 1016.9 |
| 20260501175144 | 17 | 287 | 11.3 | 22.5 | 0.00 | 0.00 | 0.00 | 26 | 1017.1 |
| 20260501173002 | 17 | 234 | 9.7 | 20.9 | 0.00 | 0.00 | 0.00 | 27 | 1017.4 |
| 20260501171928 | 17 | 257 | 6.4 | 14.5 | 0.00 | 0.00 | 0.00 | 27 | 1017.5 |